Weather Roundup
Issued by NWS Chicago, IL

Home | Current Version | Previous Version | Graphics & Text | Print | Product List | Glossary On
Versions: 1 2 3 4 5 6 7 8 9 10 11 12 13 14 15 16 17 18 19 20 21 22 23 24 25 26 27 28 29 30 31 32 33 34 35 36 37 38 39 40 41 42 43 44 45 46 47 48 49 50
000
NZUS59 KLOT 031112
HRRLOT

CHICAGO AREA WEATHER ROUNDUP
NATIONAL WEATHER SERVICE CHICAGO/ROMEOVILLE IL
600 AM CDT SUN MAY 03 2015

NOTE: "FAIR" INDICATES FEW OR NO CLOUDS BELOW 12,000 FEET WITH NO
SIGNIFICANT WEATHER AND/OR OBSTRUCTIONS TO VISIBILITY.

* THESE STATIONS ARE NOT UNDER NWS QUALITY CONTROL. THEY ALSO MAY NOT
  REPORT WEATHER SUCH AS PRECIPITATION OR FOG.

ILZ005-006-012>014-019>023-031200-
NORTHEAST ILLINOIS

CITY           SKY/WX    TMP DP  RH WIND       PRES   REMARKS
OHARE          CLOUDY    60  42  51 S7        29.97R
MIDWAY         CLOUDY    62  43  49 S6        29.99R
AURORA         PTCLDY    52  43  71 SE7       29.97F
LANSING*       CLOUDY    57  42  56 SW6       30.01R
JOLIET*        MOCLDY    60  46  61 SE3       29.98F
WAUKEGAN       MOCLDY    55  44  66 S7        29.96R
DUPAGE AIRPORT MOCLDY    54  44  69 S6        29.96F
WHEELING       CLOUDY    59  43  55 S7        29.99R
KANKAKEE*      CLOUDY    56  45  64 CALM      30.01S
MORRIS*        MOCLDY    56  44  63 SE5       29.95F
LEWIS AIRPORT* MOCLDY    55  45  67 S8        29.98F
NORTHERLY IS     N/A     61  40  45 SW6         N/A
$$

WIZ051-052-058>065-066-070>072-031200-
SOUTHEAST WISCONSIN

CITY           SKY/WX    TMP DP  RH WIND       PRES   REMARKS
MILWAUKEE      MOCLDY    59  40  49 SW9       29.94S
KENOSHA*       MOCLDY    58  43  57 SW7       29.95F
RACINE*        PTCLDY    60  41  49 SW8       29.96F
BURLINGTON     MOCLDY    53  41  64 CALM      29.95S
WAUKESHA       MOCLDY    55  43  62 S5        29.95S
WEST BEND      LGT RAIN  55  46  71 S7        29.92S
$$

INZ001>003-010>013-019-020-031200-
NORTHWEST INDIANA

CITY           SKY/WX    TMP DP  RH WIND       PRES   REMARKS
GARY*          MOCLDY    61 N/A N/A SW9       30.01R
MICHIGAN CITY* NOT AVBL
RENSSELAER*    NOT AVBL
VALPARAISO     MOCLDY    54  41  61 S6        30.02S
$$

LMZ740>746-031200-
SOUTHERN LAKE MICHIGAN

STATION/POSITION TIME  SKY/WX   TEMP WIND        PRES    VSBY
                                AIR  DIR/SP/G
                 (UTC)          (F)  (DEG/KT/KT) (MB)    (MI)
HARRISON CRIB    1000            61  190/ 16/ 17   N/A
BURNHAM HARBOR   1100            61  180/  3/  9   N/A
CALUMET HARBOR   1000            60  200/  5/  7   N/A
BURNS HARBOR     1000            60  180/ 11/ 13 1016.3R
MICHIGAN CITY    1000            61  160/ 12/ 15   N/A
$$

ABBREVIATIONS USED IN REMARKS
   TC - TEMPERATURE IN CELSIUS
  WCI - WIND CHILL INDEX
   HX - HEAT INDEX
  VSB - VISIBILITY
$$


USA.gov is the U.S. government's official web portal to all federal, state and local government web resources and services.